Regional Weather Roundup
Issued by NWS

Home | Current Version | Previous Version | Text Only | Print | Product List | Glossary Off
Versions: 1 2 3 4 5 6 7 8 9 10 11 12 13 14 15 16 17 18 19 20 21 22 23 24 25 26 27 28

000
ASUS45 KBOI 181610
RWRID

IDAHO REGIONAL WEATHER ROUNDUP
NATIONAL WEATHER SERVICE BOISE ID
900 AM MST SAT NOV 18 2017

NOTE: "FAIR" INDICATES FEW OR NO CLOUDS BELOW 12000 FEET
WITH NO SIGNIFICANT WEATHER AND/OR OBSTRUCTIONS TO VISIBILITY

IDZ012-014-181700-
SOUTHWEST IDAHO


CITY           SKY/WX    TMP DP  RH WIND       PRES   REMARKS
BOISE          SUNNY     33  23  66 SE10      30.41R WCI  25
CALDWELL       SUNNY     31  25  78 E8        30.43R WCI  23
MOUNTAIN HOME  SUNNY     28  28 100 E9        30.42R WCI  20
$$

IDZ016-017-181700-
SOUTHCENTRAL IDAHO


CITY           SKY/WX    TMP DP  RH WIND       PRES   REMARKS
BURLEY         SUNNY     31  20  63 S12       30.42R WCI  22
JEROME         SUNNY     30  20  66 SE7       30.42R WCI  23
TWIN FALLS     MOSUNNY   32  19  58 S12       30.40S WCI  23
$$

IDZ019>023-181700-
SOUTHEAST IDAHO


CITY           SKY/WX    TMP DP  RH WIND       PRES   REMARKS
IDAHO FALLS    MOSUNNY   27  22  81 SW12      30.43R WCI  17
POCATELLO      CLOUDY    31  22  69 SW5       30.43R WCI  26
REXBURG        CLOUDY    27  19  72 S15       30.40R WCI  15
$$

IDZ006-010-011-018-031-032-181700-
CENTRAL IDAHO MOUNTAINS


CITY           SKY/WX    TMP DP  RH WIND       PRES   REMARKS
MCCALL         MOCLDY    19  16  88 CALM      30.33S
HAILEY         MOSUNNY   21  10  63 W9        30.39S WCI  11
STANLEY          N/A      2  -1  88 CALM      30.37S
SALMON         CLOUDY    25  18  74 N7        30.39R WCI  17
CHALLIS        MOSUNNY   24  13  62 CALM      30.38R
$$

IDZ002-004-006-007-026-181700-
NORTHERN IDAHO


CITY           SKY/WX    TMP DP  RH WIND       PRES   REMARKS
LEWISTON       CLOUDY    36  32  85 CALM      30.37R
LOWELL           N/A     37  35  92 CALM      30.43R
COEUR D`ALENE  CLOUDY    34  32  92 S5        30.33S WCI  30
MULLAN PASS    CLOUDY    22  20  92 VRB5      30.20R WCI  16
$$




USA.gov is the U.S. government's official web portal to all federal, state and local government web resources and services.